Mount Shasta, CA

1:29 PM PDT on September 26, 2016 (GMT -0700)
Mount Shasta

Weather History for KMHS - October, 2011

Change the Weather History Date:

Thursday, October 6, 2011

  Actual Average Record
Temperature  
Mean Temperature 45 °F 55 °F  
Max Temperature 54 °F 71 °F 90 °F (1980)
Min Temperature 35 °F 39 °F 23 °F (1927)
Degree Days  
Heating Degree Days 20 10  
Month to date heating degree days 100 57  
Since 1 July heating degree days 173 294  
Cooling Degree Days 0 0  
Month to date cooling degree days 0 0  
Year to date cooling degree days 293 287  
Moisture  
Dew Point 35 °F    
Average Humidity 79    
Maximum Humidity 92    
Minimum Humidity 48    
Precipitation  
Precipitation 0.01 in 0.04 in 1.29 in (1960)
Month to date precipitation 1.58 0.19  
Year to date precipitation 27.79 28.19  
Sea Level Pressure  
Sea Level Pressure 29.95 in    
Wind  
Wind Speed 4 mph (NNW)    
Max Wind Speed 14 mph    
Max Gust Speed 25 mph    
Visibility 10 miles    
Events Rain    
T = Trace of Precipitation, MM = Missing Value Source: NWS Daily Summary

Daily Weather History Graph

Daily Weather History Graph

Search for Another Location

Airport or City:

Trip Planner

Search our weather history database for the weather conditions in past years. The results will help you decide how hot, cold, wet, or windy it might be!

Date:

Astronomy

Oct. 06, 2011 Rise Set
Actual Time 7:11 AM PDT 6:43 PM PDT
Civil Twilight 6:43 AM PDT 7:10 PM PDT
Nautical Twilight 6:11 AM PDT 7:42 PM PDT
Astronomical Twilight 5:39 AM PDT 8:14 PM PDT
Moon 4:01 PM PDT (10/6) 2:01 AM PDT (10/6)
Length of Visible Light 12h 27m
Length of Day
11h 31m
Waxing Gibbous, 76% of the Moon is Illuminated
Oct 6
Waxing Gibbous
Oct 11
Full
Oct 19
Last Quarter
Oct 26
New
Nov 2
First Quarter

Hourly Weather History & Observations

Time (PDT) Temp. Windchill Dew Point Humidity Pressure Visibility Wind Dir Wind Speed Gust Speed Precip Events Conditions
12:03 AM 37.4 °F - 35.6 °F 93% 29.78 in 10.0 mi Calm Calm - N/A   Overcast
12:43 AM 37.4 °F - 35.6 °F 93% 29.79 in 10.0 mi Calm Calm - N/A   Overcast
12:51 AM 37.4 °F - 35.6 °F 93% 29.79 in 10.0 mi Calm Calm - N/A   Overcast
12:56 AM 37.0 °F - 34.0 °F 89% 29.86 in 10.0 mi Calm Calm - N/A   Overcast
1:32 AM 37.4 °F - 33.8 °F 87% 29.79 in 10.0 mi Calm Calm - N/A   Mostly Cloudy
1:44 AM 37.4 °F - 33.8 °F 87% 29.79 in 9.0 mi Calm Calm - N/A   Overcast
1:56 AM 37.0 °F - 35.1 °F 93% 29.86 in 9.0 mi Calm Calm - N/A   Overcast
2:24 AM 37.4 °F - 35.6 °F 93% 29.80 in 9.0 mi Calm Calm - N/A   Overcast
2:56 AM 37.0 °F - 35.1 °F 93% 29.88 in 10.0 mi Calm Calm - N/A   Overcast
3:44 AM 37.4 °F - 35.6 °F 93% 29.80 in 10.0 mi Calm Calm - 0.00 in   Overcast
3:56 AM 37.9 °F - 36.0 °F 93% 29.87 in 9.0 mi Calm Calm - 0.00 in Rain Light Rain
4:56 AM 37.9 °F - 35.1 °F 89% 29.89 in 10.0 mi Calm Calm - 0.00 in   Overcast
5:32 AM 37.4 °F - 35.6 °F 93% 29.83 in 10.0 mi Calm Calm - 0.01 in Rain Light Rain
5:56 AM 37.0 °F - 35.1 °F 93% 29.92 in 10.0 mi Calm Calm - 0.01 in   Overcast
6:38 AM 37.4 °F - 35.6 °F 93% 29.86 in 9.0 mi Calm Calm - N/A   Overcast
6:56 AM 37.0 °F - 35.1 °F 93% 29.94 in 10.0 mi Calm Calm - N/A   Overcast
7:07 AM 35.6 °F - 33.8 °F 93% 29.87 in 10.0 mi Calm Calm - N/A   Mostly Cloudy
7:17 AM 35.6 °F - 33.8 °F 93% 29.87 in 7.0 mi Calm Calm - N/A   Mostly Cloudy
7:45 AM 35.6 °F - 33.8 °F 93% 29.89 in 6.0 mi Calm Calm - N/A   Mostly Cloudy
7:56 AM 35.1 °F - 33.1 °F 92% 29.97 in 10.0 mi Calm Calm - N/A   Mostly Cloudy
8:56 AM 39.9 °F - 36.0 °F 86% 30.00 in 10.0 mi Calm Calm - N/A   Overcast
9:56 AM 43.0 °F 40.3 °F 37.9 °F 82% 30.01 in 10.0 mi Variable 4.6 mph - N/A   Overcast
10:56 AM 46.9 °F - 37.9 °F 71% 30.02 in 10.0 mi Variable 5.8 mph - N/A   Overcast
11:22 AM 48.2 °F - 37.4 °F 66% 29.97 in 10.0 mi North 5.8 mph - N/A   Overcast
11:56 AM 46.0 °F 43.9 °F 35.1 °F 66% 30.04 in 10.0 mi Variable 4.6 mph - N/A   Mostly Cloudy
12:56 PM 48.0 °F - 34.0 °F 58% 30.03 in 10.0 mi Variable 4.6 mph - N/A   Scattered Clouds
1:56 PM 51.1 °F - 34.0 °F 52% 30.05 in 10.0 mi Variable 4.6 mph - N/A   Scattered Clouds
2:56 PM 52.0 °F - 32.0 °F 47% 30.04 in 10.0 mi WNW 9.2 mph 23.0 mph N/A   Clear
3:56 PM 51.1 °F - 33.1 °F 50% 30.06 in 10.0 mi North 9.2 mph - N/A   Scattered Clouds
4:56 PM 50.0 °F - 34.0 °F 54% 30.08 in 10.0 mi NNW 8.1 mph - N/A   Clear
5:56 PM 48.0 °F - 34.0 °F 58% 30.08 in 10.0 mi Variable 4.6 mph - N/A   Clear
6:56 PM 46.0 °F 43.1 °F 33.1 °F 61% 30.11 in 10.0 mi Variable 5.8 mph - N/A   Clear
7:56 PM 45.0 °F 42.6 °F 32.0 °F 60% 30.14 in 10.0 mi Variable 4.6 mph 16.1 mph N/A   Clear
8:56 PM 45.0 °F 41.2 °F 33.1 °F 63% 30.15 in 10.0 mi Variable 6.9 mph - N/A   Clear
9:56 PM 45.0 °F 41.2 °F 34.0 °F 65% 30.16 in 10.0 mi Variable 6.9 mph - N/A   Partly Cloudy
10:56 PM 43.0 °F 41.3 °F 35.1 °F 74% 30.17 in 10.0 mi Variable 3.5 mph - N/A   Scattered Clouds
11:56 PM 44.1 °F 40.1 °F 34.0 °F 68% 30.16 in 10.0 mi Variable 6.9 mph - N/A   Partly Cloudy